This is the latest recevied weather packets stored in our database for station/object EA5LU-10. If no packets are shown the sender has not sent any weather packets the latest 10 day(s).
| Time | Temp. | Humidity | Pressure | Rain* | Wind** | Luminosity | Snow |
|---|---|---|---|---|---|---|---|
| 1777571343 | 25° C | 57% | 1006.5 hPa | - | - | - | - |
| 1777570442 | 26.67° C | 52% | 1006.4 hPa | - | - | - | - |
| 1777569541 | 28.89° C | 47% | 1006.4 hPa | - | - | - | - |
| 1777568640 | 27.78° C | 51% | 1006.3 hPa | - | - | - | - |
| 1777567740 | 28.33° C | 48% | 1006.2 hPa | - | - | - | - |
| 1777566839 | 29.44° C | 47% | 1006.2 hPa | - | - | - | - |
| 1777565938 | 30° C | 47% | 1006.3 hPa | - | - | - | - |
| 1777565037 | 28.89° C | 49% | 1006.5 hPa | - | - | - | - |
| 1777564136 | 28.33° C | 49% | 1006.5 hPa | - | - | - | - |
| 1777563235 | 28.89° C | 50% | 1006.5 hPa | - | - | - | - |
| 1777562334 | 28.89° C | 48% | 1006.2 hPa | - | - | - | - |
| 1777561433 | 28.33° C | 50% | 1006.4 hPa | - | - | - | - |
| 1777560532 | 27.22° C | 52% | 1006.5 hPa | - | - | - | - |
| 1777559632 | 27.78° C | 50% | 1006.5 hPa | - | - | - | - |
| 1777558731 | 30° C | 46% | 1006.4 hPa | - | - | - | - |
| 1777557830 | 29.44° C | 47% | 1006.6 hPa | - | - | - | - |
| 1777556929 | 28.33° C | 49% | 1006.8 hPa | - | - | - | - |
| 1777556028 | 28.33° C | 49% | 1006.8 hPa | - | - | - | - |
| 1777555128 | 28.33° C | 48% | 1006.9 hPa | - | - | - | - |
| 1777554227 | 27.78° C | 49% | 1006.8 hPa | - | - | - | - |
| 1777553326 | 26.67° C | 51% | 1006.8 hPa | - | - | - | - |
| 1777552425 | 26.11° C | 52% | 1006.9 hPa | - | - | - | - |
| 1777551524 | 26.11° C | 52% | 1006.9 hPa | - | - | - | - |
| 1777550624 | 25.56° C | 55% | 1007 hPa | - | - | - | - |
| 1777549723 | 25° C | 55% | 1007.2 hPa | - | - | - | - |
* Rain since midnight (hover to see other rain measurements)
** Current wind speed in m/s (hover to see current wind gust speed)